This is the latest recevied weather packets stored in our database for station/object LA6LOA. If no packets are shown the sender has not sent any weather packets the latest 10 day(s).
| Time | Temp. | Humidity | Pressure | Rain* | Wind** | Luminosity | Snow |
|---|---|---|---|---|---|---|---|
| 1777786277 | 1.67° C | 100% | 999.7 hPa | 0 mm | - | - | - |
| 1777785977 | 1.67° C | 100% | 999.7 hPa | 0 mm | - | - | - |
| 1777785677 | 1.11° C | 100% | 999.8 hPa | 0 mm | - | - | - |
| 1777785377 | 0.56° C | 100% | 999.8 hPa | 0 mm | - | - | - |
| 1777785077 | 0.56° C | 100% | 999.9 hPa | 0 mm | - | - | - |
| 1777784777 | 1.11° C | 100% | 999.9 hPa | 0 mm | - | - | - |
| 1777784477 | 1.11° C | 100% | 999.9 hPa | 0 mm | - | - | - |
| 1777784177 | 1.11° C | 100% | 999.9 hPa | 0 mm | - | - | - |
| 1777783877 | 1.11° C | 100% | 999.9 hPa | 0 mm | - | - | - |
| 1777783577 | 1.11° C | 100% | 999.8 hPa | 0 mm | - | - | - |
| 1777783277 | 1.11° C | 100% | 999.9 hPa | 0 mm | - | - | - |
| 1777782977 | 1.11° C | 100% | 999.9 hPa | 0 mm | - | - | - |
| 1777782677 | 1.67° C | 100% | 999.9 hPa | 0 mm | - | - | - |
| 1777782377 | 1.11° C | 100% | 999.9 hPa | 0 mm | - | - | - |
| 1777782077 | 0.56° C | 100% | 999.9 hPa | 0 mm | - | - | - |
| 1777781786 | 1.11° C | 100% | 999.9 hPa | 0 mm | - | - | - |
| 1777781477 | 1.67° C | 100% | 1000 hPa | 0 mm | - | - | - |
| 1777781177 | 3.33° C | 100% | 1000 hPa | 0 mm | - | - | - |
| 1777780907 | 0.56° C | 100% | 1000 hPa | 0 mm | - | - | - |
| 1777780577 | 0° C | 100% | 1000 hPa | 0 mm | - | - | - |
| 1777780277 | 0° C | 100% | 1000.2 hPa | 0 mm | - | - | - |
| 1777779977 | -0.56° C | 100% | 1000.3 hPa | 0 mm | - | - | - |
| 1777779677 | -0.56° C | 100% | 1000.3 hPa | 0 mm | - | - | - |
| 1777779377 | 0° C | 100% | 1000.2 hPa | 0 mm | - | - | - |
| 1777779077 | 2.22° C | 100% | 1000.2 hPa | 0 mm | - | - | - |
* Rain latest hour (hover to see other rain measurements)
** Current wind speed in m/s (hover to see current wind gust speed)